Location: Most
(50.5330°N, 13.6500°E)
Time: 07:00:21
(UTC+01:00)

N. Korean satellite - Pass Details

Date: 25 October 2021
Orbit: 446 x 495 km, 97.3° (Epoch: 04 December)

Event Time Altitude Azimuth Distance (km) Brightness Sun altitude
Rises 07:03:50 0° 7° (N) 2,600 10.2 -7.1°
Reaches altitude 10° 07:06:00 10° 359° (N) 1,710 9.2 -6.8°
Maximum altitude 07:09:27 39° 290° (WNW) 757 7.1 -6.2°
Drops below altitude 10° 07:12:51 10° 221° (SW) 1,683 9.0 -5.7°
Sets 07:14:59 0° 213° (SSW) 2,553 10.0 -5.4°
